Location: Freischling
(48.5667°N, 15.7167°E)
Time: 04:22:54
(UTC+00:00)

Daily predictions for brighter satellites

Satellite Brightness Start Highest point End
(mag) Time Altitude Azimuth Time Altitude Azimuth Time Altitude Azimuth
Cosmos 1943 Rocket 4.2 02:25:02 24° E 02:25:02 24° E 02:29:04 10° NE
CENTAUR R/B 3.8 02:28:55 33° ESE 02:28:55 33° ESE 02:34:29 10° NE
Cosmos 2278 Rocket 4.3 02:51:58 18° NNE 02:51:58 18° NNE 02:53:25 10° NNE
Cosmos 2344 3.5 02:53:31 70° SE 02:53:48 70° SE 03:01:32 10° NE
USA 238 DEB 4.1 03:12:40 43° S 03:14:24 56° ESE 03:21:03 10° NE
USA 238 4.1 03:12:43 43° S 03:14:31 55° ESE 03:21:09 10° NE
BREEZE-M DEB (TANK) 3.9 03:15:56 46° SE 03:15:56 46° SE 03:23:10 10° ESE
USA 215 3.3 03:18:15 10° ESE 03:24:44 72° NNE 03:25:43 63° NNW
Cosmos 1816 Rocket 4.5 03:19:19 10° S 03:25:31 82° E 03:31:52 10° N
Cosmos 2369 Rocket 3.4 03:33:26 10° S 03:38:37 41° ESE 03:43:50 10° NE
Cosmos 1634 Rocket 4.1 03:38:09 10° N 03:44:28 74° E 03:50:41 10° SSE
COSMO-SKYMED 1 3.1 03:43:24 10° SSE 03:47:40 58° ENE 03:48:36 47° NNE
Cosmos 1867 4.2 03:50:14 41° SSW 03:50:14 41° SSW 03:54:13 10° SSE
MOS 1-B Rocket 3.8 03:44:32 10° SSE 03:50:52 88° WSW 03:54:14 27° NNW
Cosmos 2208 Rocket 4.3 03:52:17 54° SSW 03:52:17 54° SSW 03:56:45 10° S
H-2A R/B 3.4 03:49:02 10° NNE 03:52:40 51° E 03:56:19 10° S
Tsikada Rocket 3.8 03:46:53 10° S 03:53:05 82° W 03:59:26 10° N
Gblst 52 Del rocket 4.3 03:54:35 56° WSW 03:56:01 90° ENE 04:02:51 10° ENE
Cosmos 1943 Rocket 2.1 04:06:38 49° WSW 04:07:55 62° WNW 04:13:32 10° NNE
CZ-2C R/B 2.6 04:03:22 10° SSE 04:08:52 87° WSW 04:13:25 15° NNW
SL-19 R/B 4.2 04:05:36 10° S 04:11:07 60° WSW 04:13:20 35° NW
SKYMED 3 4.4 04:07:24 10° SSE 04:11:45 82° WSW 04:12:58 47° NNW
Cosmos 1486 Rocket 4.3 04:06:42 10° S 04:11:57 67° ESE 04:17:13 10° NNE
CZ-4C R/B 3.5 04:09:13 10° SSE 04:12:17 50° ENE 04:12:32 48° NE
SL-8 R/B 3.6 04:16:23 55° W 04:17:23 76° SSW 04:22:10 10° ESE
CENTAUR R/B 2.6 04:16:08 36° WSW 04:18:41 61° NW 04:25:58 10° NE
Cosmos 2297 3.9 04:21:06 37° WSW 04:22:55 50° NW 04:28:29 10° NNE
FALCON 9 DEB 3.9 04:25:20 35° NE 04:25:20 35° NE 04:27:20 10° ENE
Iridium 2 3.5 04:23:32 10° S 04:27:19 72° W 04:31:07 10° N
SJ 16-02 4.1 04:26:08 10° SE 04:29:24 21° E 04:32:40 10° NE
NOSS 3-2 (A) 3.8 04:27:50 34° W 04:29:49 45° NW 04:36:18 10° NE
FALCON 9 DEB 3.8 04:31:50 34° NNE 04:31:50 34° NNE 04:33:56 10° ENE
Cosmos 2278 Rocket 3.9 04:33:50 16° NNW 04:33:50 16° NNW 04:36:35 10° N
Meteor 2-8 Rocket 4.5 04:27:02 10° N 04:33:14 85° E 04:39:22 10° S
FALCON 9 DEB 3.8 04:33:52 33° NNE 04:33:52 33° NNE 04:36:02 10° ENE
Envisat 2.9 04:29:46 10° N 04:34:49 64° WNW 04:39:50 10° SSW
SKYMED 2 3.8 04:31:35 10° S 04:35:46 47° W 04:37:12 34° NW
Meteor 2-6 Rocket 4.0 04:30:37 10° NNW 04:36:04 76° W 04:41:26 10° S
NOSS 3-2 (C) 3.4 04:33:35 24° WSW 04:37:09 61° NW 04:43:46 10° NE
Cosmos 2098 Rocket 3.0 04:38:32 10° SSW 04:42:23 58° WNW 04:47:19 10° N
Meteor 2-3 Rocket 4.2 04:38:10 10° SW 04:43:21 36° WNW 04:48:38 10° N
SL-27 R/B 3.4 04:40:34 15° N 04:43:23 47° ENE 04:46:50 10° SE
Landsat 5 3.8 04:41:01 10° S 04:45:23 49° W 04:48:26 19° NNW
Cosmos 968 Rocket 3.8 04:42:38 13° SW 04:46:53 42° WNW 04:51:47 10° NNE
CZ-4B R/B 4.2 04:43:00 10° N 04:47:20 55° WNW 04:51:42 10° SSW
FALCON 9 DEB 3.2 04:49:58 39° NNW 04:50:10 40° NNW 04:52:56 10° ENE
Cosmos 921 Rocket 3.9 04:50:35 27° W 04:51:02 28° W 04:54:49 10° SSW
Meteor 1-10 Rocket 4.1 04:46:28 10° NNW 04:52:03 77° W 04:57:34 10° S
Okean 3 Rocket 3.6 04:49:32 10° SSW 04:54:02 62° WNW 04:58:34 10° N
Cosmos 1833 4.2 04:51:16 16° NW 04:55:51 64° WSW 05:01:30 10° SSE
H-2A R/B 2.3 04:51:42 10° SSE 04:55:56 72° ENE 05:00:18 10° N
DNEPR-1 R/B 4.2 04:53:14 24° WNW 04:55:58 52° WSW 05:01:27 10° SSE
ATLAS 5 CENTAUR R/B 3.9 04:53:03 10° S 04:56:09 24° ESE 04:59:32 10° ENE
Cosmos 1812 3.6 04:56:57 27° W 04:57:10 27° W 05:00:26 10° SSW
ADEOS 3.5 04:53:06 10° NNE 04:58:21 78° WNW 05:03:34 10° SSW
DMSP B5D1-3 4.5 04:54:14 10° S 04:59:23 78° WSW 05:04:35 10° NNW
SJ-7 4.4 04:55:32 10° NNE 04:59:46 82° WNW 05:03:56 10° SSW
Cosmos 1151 Rocket 3.8 05:01:35 18° NW 05:04:01 30° W 05:07:51 10° SSW
Cosmos 1354 Rocket 4.0 04:59:06 10° SSW 05:04:23 90° ESE 05:09:44 10° NNE
USA 238 DEB 4.0 05:00:11 14° WSW 05:05:33 45° NW 05:12:15 10° NE
USA 238 4.0 05:00:14 14° WSW 05:05:39 45° NW 05:12:20 10° NE
CZ-2C R/B 2.9 05:01:31 10° NNE 05:06:23 89° ESE 05:11:26 10° SSW
Cosmos 1766 Rocket 3.9 05:03:13 10° SW 05:07:18 40° WNW 05:11:25 10° N
USA 215 3.7 05:01:49 10° SSE 05:08:01 45° SW 05:13:03 16° WNW
Cosmos 2263 4.2 05:03:01 10° SW 05:08:40 62° WNW 05:14:24 10° NNE
Geosat FO 4.4 05:05:33 10° SSE 05:08:50 67° WSW 05:11:21 17° NW
Cosmos 2344 4.1 05:03:34 17° W 05:08:52 39° NNW 05:16:43 10° NE
Meteor PRIRODA 3.5 05:08:08 10° N 05:11:45 71° WNW 05:15:21 10° SSW
Meteor 1-31 Rocket 3.6 05:09:49 10° N 05:13:10 28° WNW 05:16:31 10° SW
Cosmos 2279 Rocket 4.4 05:08:51 10° NNW 05:14:33 40° W 05:20:13 10° SSW
Cosmos 2297 Rocket 3.7 05:11:21 10° NNW 05:16:24 32° NE 05:21:25 10° ESE
Cosmos 1328 Rocket 4.3 05:12:49 10° NNW 05:16:42 31° W 05:20:34 10° SSW
IRAS Rocket 4.4 05:12:07 10° S 05:17:28 51° WSW 05:22:50 10° NNW
BREEZE-M DEB (TANK) 3.8 05:08:59 10° SW 05:19:15 54° SSE 05:22:27 10° E
FengYun 1-2 T 4.4 05:16:07 10° NNE 05:21:39 80° ESE 05:27:08 10° SSW
SMAP 3.4 05:17:29 10° NNE 05:22:10 73° ESE 05:26:48 10° S
Cosmos 2369 Rocket 2.6 05:17:29 10° WSW 05:22:41 39° NW 05:27:56 10° NNE
FALCON 9 DEB 3.6 05:21:07 17° W 05:23:26 44° NNW 05:26:43 10° ENE
Cosmos 1862 4.2 05:20:21 10° SW 05:23:41 26° WNW 05:27:04 10° NNW
COSMO-SKYMED 1 4.1 05:21:26 10° SW 05:24:13 17° W 05:25:48 14° WNW
H-2A R/B 4.3 05:24:12 10° NNW 05:26:24 15° WNW 05:28:37 10° W
Nadezhda 4 Rocket 3.9 05:20:30 10° SSW 05:26:38 73° W 05:32:54 10° N
Cosmos 1607 4.4 05:24:10 10° NW 05:30:25 61° NE 05:36:30 10° SE
CZ-2D R/B 4.1 05:27:54 10° NNE 05:31:40 54° E 05:35:22 10° S
Cosmos 1538 Rocket 4.1 05:26:48 10° NNW 05:32:06 81° ENE 05:37:17 10° SSE
H-2A R/B 3.1 05:28:39 10° NNE 05:33:25 48° E 05:38:10 10° S
Cosmos 2228 Rocket 3.2 05:30:31 10° N 05:35:01 86° ENE 05:39:33 10° S
CZ-4B R/B 2.9 05:32:39 10° N 05:36:04 41° WNW 05:39:26 10° SW
Lacrosse 4 Rocket 3.8 05:35:43 10° N 05:38:40 17° NE 05:41:38 10° ENE
CZ-4B R/B 1.3 05:36:27 10° S 05:39:47 69° WSW 05:43:05 10° NNW
Cosmos 1092 Rocket 4.1 05:34:37 10° S 05:40:52 88° ESE 05:47:14 10° N
Cosmos 2263 Rocket 4.4 05:40:11 10° N 05:42:41 13° NNE 05:45:11 10° ENE
Cosmos 1408 Rocket 4.1 05:38:44 10° SW 05:42:43 36° WNW 05:46:43 10° N
Meteor 1-20 Rocket 4.3 05:40:47 10° S 05:46:21 89° WNW 05:52:05 10° NNE
Cosmos 1656 Rocket 4.2 05:41:28 10° WSW 05:46:23 34° NW 05:51:21 10° NNE
USA 32 4.1 05:41:16 10° NNW 05:46:29 64° W 05:51:38 10° S
CZ-2C R/B 4.3 05:47:05 10° WSW 05:49:54 14° W 05:52:41 10° NW
Cosmos 1743 Rocket 3.7 05:45:39 10° SSW 05:49:57 55° WNW 05:54:16 10° N
AQUARIUS 4.1 05:45:41 10° N 05:50:10 71° WNW 05:54:38 10° SSW
Cosmos 2227 Rocket 3.4 05:46:29 10° NNW 05:51:49 40° NE 05:57:06 10° ESE
Cosmos 1943 Rocket 3.7 05:49:25 10° WNW 05:52:53 16° NW 05:56:20 10° N
PSLV R/B 3.8 05:51:28 10° N 05:55:23 78° WNW 05:59:22 10° SSW
CZ-4B DEB 4.3 05:50:38 10° NNE 05:56:07 90° NNW 06:01:35 10° SSW
